NIMBUS 2 DEB, 28978

Orbit data source: Space-Track

NIMBUS 2 DEB, 28978 is space debris in SSO originally from a launch on Sun, 15 May 1966 UTC launched from the Air Force Western Test Range (AFWTR). Debris objects in space refer to the collection of defunct objects orbiting the Earth. Examples of debris include non-operational satellites, rocket bodies, and fragments generated from explosions, collisions, or faulty payload assembly.

Loading next visibility...
Identifier
28978, 1966-040AP
Orbit
SSO
Country
Flag of USUS
Related business
Manufacturer
Unknown
Mission
Spacecraft
Bus & Motor
Unknown
Mass
Unknown
Launch date (UTC)
1966-05-15 (59 years ago)
Launch vehicle
Unknown
Launch site
Air Force Western Test Range (AFWTR)
Object type
Payload
Rocket body
Debris
Shape & HBR
Unknown
Radar Cross Section
Small (<0.1 m²)

Expand to show TLE details & history
Last TLE update: 1 day ago

TLE from 1 day ago
0 NIMBUS 2 DEB
1 28978U 66040AP  25241.73233256  .00001936  00000-0  30386-2 0  9996
2 28978 100.3726 159.0198 0045791  13.0318  42.9226 13.51237051890549
Epoch: 2025-08-29T17:34Z
TLE epoch observation values (Epoch: 2025-08-29T17:34:33.533Z)
Latitude
55.03201°
Longitude
-97.8887°
Altitude
1,051.807 km
Speed
7.343 km/s
True Right ascension
09h 35m 42s
True Declination
54° 52' 36"
Sunlit
Object was in daylight at epoch
Visualization orbit readout
Latitude
Unknown
Longitude
Unknown
Altitude
Unknown
Speed
Unknown
Apparent Right ascension
Unknown
Apparent Declination
Unknown
Sunlit
N/A
Visualization observer readout
Local Sidereal Time
08:58:33
Azimuth
Unknown
Elevation
Unknown
Doppler factor
Unknown
Orbital elements
Apogee altitude
1,099.129 km
Perigee altitude
1,030.963 km
Semi-major axis
7,443.183 km
Eccentricity
0.00458
Inclination
100.3726°
RAAN
159.0198°
Arg. of periapsis
13.0318°
True anomaly
43.28145°
Mean anomaly
42.9226°
Eccentric anomaly
43.10187°
Mean motion
3.37991 °/min
Orbital period
106.51 mins
BSTAR
0.0030386
Loading maneuver chart data...
Computing Atmospheric mass density...
Loading historical data...
Loading historical data...
Loading historical data...
Loading historical data...
Loading historical data...
Loading historical data...
Loading historical data...

Documentation

Showing up to 5 results
|